Change the Weather History Date:

Friday, March 29, 2013

  Actual Average Record
Temperature  
Mean Temperature 48 °F -  
Max Temperature 53 °F - 83 °F (1986)
Min Temperature 42 °F - 22 °F (1965)
Degree Days  
Heating Degree Days 17    
Month to date heating degree days 664  
Since 1 July heating degree days 3581  
Cooling Degree Days 0    
Month to date cooling degree days 0  
Moisture  
Dew Point 43 °F    
Average Humidity 82    
Maximum Humidity 93    
Minimum Humidity 71    
Precipitation  
Precipitation 0.34 in - 2.27 in (1965)
Month to date precipitation 4.46  
Sea Level Pressure  
Sea Level Pressure 30.25 in    
Wind  
Wind Speed 4 mph (SE)    
Max Wind Speed 12 mph    
Max Gust Speed 14 mph    
Visibility 7 miles    
Events Rain    
T = Trace of Precipitation, MM = Missing Value Source: NWS Daily Summary

Daily Weather History Graph

Daily Weather History Graph

Search for Another Location

Airport or City:

Trip Planner

Search our weather history database for the weather conditions in past years. The results will help you decide how hot, cold, wet, or windy it might be!

Date:

Astronomy

Mar. 29, 2013 Rise Set
Actual Time 6:39 AM CDT 7:09 PM CDT
Civil Twilight 6:13 AM CDT 7:35 PM CDT
Nautical Twilight 5:43 AM CDT 8:06 PM CDT
Astronomical Twilight 5:12 AM CDT 8:37 PM CDT
Moon 10:03 PM CDT (3/29) 7:52 AM CDT (3/29)
Length of Visible Light 13h 21m
Length of Day
12h 29m
Waning Gibbous, 93% of the Moon is Illuminated
Mar 29
Waning Gibbous
Apr 2
Last Quarter
Apr 10
New
Apr 18
First Quarter
Apr 25
Full

Hourly Weather History & Observations

Time (CDT) Temp. Windchill Dew Point Humidity Pressure Visibility Wind Dir Wind Speed Gust Speed Precip Events Conditions
12:52 AM 46.0 °F 44.8 °F 37.9 °F 73% 30.29 in 10.0 mi East 3.5 mph - N/A   Overcast
1:52 AM 45.0 °F 42.6 °F 37.0 °F 74% 30.28 in 10.0 mi East 4.6 mph - N/A   Overcast
2:52 AM 46.0 °F 44.8 °F 37.9 °F 73% 30.26 in 10.0 mi East 3.5 mph - N/A   Overcast
3:52 AM 46.0 °F 44.8 °F 37.0 °F 71% 30.28 in 10.0 mi North 3.5 mph - N/A   Overcast
4:52 AM 46.0 °F 43.9 °F 37.0 °F 71% 30.27 in 10.0 mi East 4.6 mph - 0.00 in Rain Light Rain
5:52 AM 45.0 °F 42.6 °F 39.0 °F 80% 30.27 in 9.0 mi East 4.6 mph - 0.01 in   Overcast
6:52 AM 45.0 °F 40.1 °F 39.9 °F 82% 30.28 in 7.0 mi ENE 9.2 mph - 0.04 in Rain Light Rain
7:52 AM 45.0 °F 42.6 °F 41.0 °F 86% 30.30 in 5.0 mi East 4.6 mph - 0.00 in Rain Light Rain
8:52 AM 44.1 °F - 42.1 °F 93% 30.32 in 2.0 mi Calm Calm - 0.05 in Rain Light Rain
9:36 AM 44.6 °F 40.7 °F 42.8 °F 93% 30.30 in 1.8 mi SE 6.9 mph - 0.08 in Rain Rain
9:47 AM 44.6 °F 41.4 °F 42.8 °F 93% 30.29 in 2.0 mi SE 5.8 mph - 0.10 in Rain Rain
9:52 AM 45.0 °F 41.2 °F 43.0 °F 93% 30.30 in 1.8 mi SSE 6.9 mph - 0.11 in Rain Rain
10:03 AM 44.6 °F 39.7 °F 42.8 °F 93% 30.29 in 2.5 mi SSE 9.2 mph - 0.01 in Rain Light Rain
10:13 AM 46.4 °F 42.9 °F 44.6 °F 93% 30.29 in 3.0 mi SSE 6.9 mph - 0.03 in Rain Light Rain
10:44 AM 46.4 °F 41.5 °F 44.6 °F 93% 30.28 in 2.5 mi SSE 10.4 mph - 0.07 in Rain Light Rain
10:52 AM 46.0 °F 41.4 °F 44.1 °F 93% 30.28 in 3.0 mi SSE 9.2 mph - 0.08 in Rain Light Rain
11:52 AM 48.0 °F - 45.0 °F 89% 30.27 in 7.0 mi SSE 6.9 mph - 0.02 in Rain Light Rain
12:52 PM 48.0 °F - 46.0 °F 93% 30.26 in 6.0 mi SE 4.6 mph - 0.03 in Rain Light Rain
1:52 PM 50.0 °F - 46.0 °F 86% 30.24 in 10.0 mi SSE 5.8 mph - 0.00 in   Overcast
2:52 PM 51.1 °F - 46.0 °F 83% 30.22 in 10.0 mi Variable 4.6 mph - N/A   Overcast
3:52 PM 51.1 °F - 45.0 °F 80% 30.21 in 10.0 mi Calm Calm - N/A   Overcast
4:52 PM 53.1 °F - 45.0 °F 74% 30.20 in 10.0 mi Calm Calm - N/A   Scattered Clouds
5:52 PM 52.0 °F - 45.0 °F 77% 30.20 in 10.0 mi South 5.8 mph - N/A   Overcast
6:03 PM 51.8 °F - 44.6 °F 76% 30.20 in 10.0 mi SSW 4.6 mph - N/A   Overcast
6:52 PM 51.1 °F - 45.0 °F 80% 30.21 in 10.0 mi SSW 3.5 mph - N/A   Overcast
7:37 PM 50.0 °F - 44.6 °F 82% 30.20 in 10.0 mi Calm Calm - N/A   Overcast
7:52 PM 50.0 °F - 46.0 °F 86% 30.21 in 10.0 mi Calm Calm - N/A   Overcast
8:52 PM 50.0 °F - 46.0 °F 86% 30.22 in 10.0 mi Calm Calm - N/A   Overcast
9:52 PM 48.9 °F - 46.0 °F 90% 30.23 in 7.0 mi Calm Calm - N/A   Overcast
10:14 PM 48.2 °F - 46.4 °F 93% 30.23 in 7.0 mi Calm Calm - N/A   Overcast
10:52 PM 48.0 °F - 46.0 °F 93% 30.22 in 5.0 mi Calm Calm - N/A   Overcast
11:52 PM 44.1 °F 42.5 °F 43.0 °F 96% 30.21 in 3.0 mi ESE 3.5 mph - N/A   Partly Cloudy
11:54 PM 42.8 °F 41.1 °F 42.8 °F 100% 30.21 in 1.5 mi ESE 3.5 mph - N/A   Partly Cloudy